Location: Newark
(12.6500°N, 8.0000°W)
Time: 15:50:13
(UTC+00:00)

N. Korean satellite - Pass Details

Date: 31 October 2019
Orbit: 456 x 506 km, 97.2° (Epoch: 12 November)

Event Time Altitude Azimuth Distance (km) Brightness Sun altitude
Rises 18:25:09 0° 189° (S) 2,462 10.5 -5.3°
Reaches altitude 10° 18:27:24 10° 203° (SSW) 1,592 9.7 -5.9°
Maximum altitude 18:30:17 26° 261° (W) 945 9.2 -6.6°
Drops below altitude 10° 18:33:12 10° 319° (NW) 1,604 9.6 -7.2°
Sets 18:35:29 0° 332° (NNW) 2,486 10.4 -7.8°
